SCP
0 0 0 0 0 0 0 0 0 0 0 0 0 0 0 0 0 0 0 0 0 0 0 0 0 0 0 0 0 0 0 0 0 0 0 0 0 0 0 0 0 0 0 0
0 0 0 0 0 0 0 0 0 0 0 0 0 0 0 0 0 0 0 0 0 0 0 0 0 0 0 0 0 0 0 0 0 0 0 0 0 0 0 0 0 0 0 0
0 0 0 0 0 0 0 0 0 0 0 0 0 0 0 0 0 0 0 0 0 0 0 0 0 0 0 0 0 0 0 0 0 0 0 0 0 0 0 0 0 0 0 0
0 0 0 0 0 0 0 0 0 0 0 0 0 0 0 0 0 0 0 0 0 0 0 0 0 0 0 0 0 0 0 0 0 0 0 0 0 0 0 0 0 0 0 0
0 0 0 0 0 0 0 0 0 0 0 0 0 0 0 0 0 0 0 0 0 0 0 0 0 0 0 0 0 0 0 0 0 0 0 0 0 0 0 0 0 0 0 0
0 0 0 0 0 0 0 0 0 0 0 0 0 0 0 0 0 0 0 0 0 0 0 0 0 0 0 0 0 0 0 0 0 0 0 0 0 0 0 0 0 0 0 0
0 0 0 0 0 0 0 0 0 0 0 0 0 0 0 0 0 0 0 0 0 0 0 0 0 0 0 0 0 0 0 0 0 0 0 0 0 0 0 0 0 0 0 0
0 0 0 0 0 0 0 0 0 0 0 0 0 0 0 0 0 0 0 0 0 0 0 0 0 0 0 0 0 0 0 0 0 0 0 0 0 0 0 0 0 0 0 0
0 0 0 0 0 0 0 0 0 0 0 0 0 0 0 0 0 0 0 0 0 0 0 0 0 0 0 0 0 0 0 0 0 0 0 0 0 0 0 0 0 0 0 0
0 0 0 0 0 0 0 0 0 0 0 0 0 0 0 0 0 0 0 0 0 0 0 0 0 0 0 0 0 0 0 0 0 0 0 0 0 0 0 0 0 0 0 0
0 0 0 0 0 0 0 0 0 0 0 0 0 0 0 0 0 0 0 0 0 0 0 0 0 0 0 0 0 0 0 0 0 0 0 0 0 0 0 0 0 0 0 0
0 0 0 0 0 0 0 0 0 0 0 0 0 0 0 0 0 0 0 0 0 0 0 0 0 0 0 0 0 0 0 0 0 0 0 0 0 0 0 0 0 0 0 0
0 0 0 0 0 0 0 0 0 0 0 0 0 0 0 0 0 0 0 0 0 0 0 0 0 0 0 0 0 0 0 0 0 0 0 0 0 0 0 0 0 0 0 0
0 0 0 0 0 0 0 0 0 0 0 0 0 0 0 0 0 0 0 0 0 0 0 0 0 0 0 0 0 0 0 0 0 0 0 0 0 0 0 0 0 0 0 0
0 0 0 0 0 0 0 0 0 0 0 0 0 0 0 0 0 0 0 0 0 0 0 0 0 0 0 0 0 0 0 0 0 0 0 0 0 0 0 0 0 0 0 0
0 0 0 0 0 0 0 0 0 0 0 0 0 0 0 0 0 0 0 0 0 0 0 0 0 0 0 0 0 0 0 0 0 0 0 0 0 0 0 0 0 0 0 0
0 0 0 0 0 0 0 0 0 0 0 0 0 0 0 0 0 0 0 0 0 0 0 0 0 0 0 0 0 0 0 0 0 0 0 0 0 0 0 0 0 0 0 0
0 0 0 0 0 0 0 0 0 0 0 0 0 0 0 0 0 0 0 0 0 0 0 0 0 0 0 0 0 0 0 0 0 0 0 0 0 0 0 0 0 0 0 0
0 0 0 0 0 0 0 0 0 0 0 0 0 0 0 0 0 0 0 0 0 0 0 0 0 0 0 0 0 0 0 0 0 0 0 0 0 0 0 0 0 0 0 0
0 0 0 0 0 0 0 0 0 0 0 0 0 0 0 0 0 0 0 0 0 0 0 0 0 0 0 0 0 0 0 0 0 0 0 0 0 0 0 0 0 0 0 0
0 0 0 0 0 0 0 0 0 0 0 0 0 0 0 0 0 0 0 0 0 0 0 0 0 0 0 0 0 0 0 0 0 0 0 0 0 0 0 0 0 0 0 0
0 0 0 0 0 0 0 0 0 0 0 0 0 0 0 0 0 0 0 0 0 0 0 0 0 0 0 0 0 0 0 0 0 0 0 0 0 0 0 0 0 0 0 0
0 0 0 0 0 0 0 0 0 0 0 0 0 0 0 0 0 0 0 0 0 0 0 0 0 0 0 0 0 0 0 0 0 0 0 0 0 0 0 0 0 0 0 0
0 0 0 0 0 0 0 0 0 0 0 0 0 0 0 0 0 0 0 0 0 0 0 0 0 0 0 0 0 0 0 0 0 0 0 0 0 0 0 0 0 0 0 0
0 0 0 0 0 0 0 0 0 0 0 0 0 0 0 0 0 0 0 0 0 0 0 0 0 0 0 0 0 0 0 0 0 0 0 0 0 0 0 0 0 0 0 0
0 0 0 0 0 0 0 0 0 0 0 0 0 0 0 0 0 0 0 0 0 0 0 0 0 0 0 0 0 0 0 0 0 0 0 0 0 0 0 0 0 0 0 0
0 0 0 0 0 0 0 0 0 0 0 0 0 0 0 0 0 0 0 0 0 0 0 0 0 0 0 0 0 0 0 0 0 0 0 0 0 0 0 0 0 0 0 0
Wind_Speed
6 6 3 4 4 3 3 4 5 6 6 6 6 6 6 6 6 6 7 8 7 7 7 7 7 7 7 7 6 6 5 5 5 5 4 2 2 1 1 0 0 1 1 1
4 3 3 4 4 4 4 4 5 6 6 4 5 4 4 5 5 6 7 8 8 8 7 7 8 8 8 7 7 6 5 5 5 5 4 3 2 1 1 0 0 0 1 1
4 3 3 4 4 3 2 1 2 4 4 5 5 6 5 5 5 6 7 8 8 8 7 7 7 7 7 7 6 5 5 5 5 5 5 4 3 2 1 0 0 0 0 1
2 2 4 4 1 0 1 1 1 1 3 4 6 7 5 3 4 6 7 8 8 7 8 7 6 7 7 6 6 5 5 5 5 5 5 4 3 2 2 1 0 0 1 0
1 2 5 3 2 1 1 3 1 2 4 5 6 5 3 2 5 6 7 7 7 7 6 6 6 7 6 6 5 5 5 5 5 5 5 4 3 3 2 1 1 1 1 1
1 2 5 4 3 2 0 4 1 2 4 5 5 4 5 6 7 8 7 6 6 6 6 6 6 6 5 5 5 5 5 5 5 5 4 4 3 3 2 2 2 2 2 2
2 4 6 4 3 1 2 5 3 3 4 4 3 5 7 8 7 7 7 7 6 6 5 6 6 5 5 5 5 5 5 5 5 5 4 3 3 3 2 2 2 2 2 2
2 3 7 2 2 3 5 3 3 4 4 5 6 7 7 7 7 7 7 7 6 6 6 6 6 5 5 5 5 5 5 4 5 5 4 4 3 3 3 2 2 2 2 2
6 6 4 2 3 3 2 3 3 4 5 5 6 6 7 7 7 7 7 7 6 6 6 6 6 5 5 5 4 4 4 4 4 4 4 4 3 3 2 2 2 2 2 1
3 5 3 3 2 2 1 2 3 4 4 4 5 6 7 7 7 7 7 6 6 6 6 6 6 6 5 5 4 3 4 4 4 3 4 3 3 3 2 2 1 2 1 1
4 4 3 3 2 3 3 3 3 4 3 4 5 6 6 6 6 6 7 6 6 5 6 6 6 6 6 5 4 3 3 3 3 3 3 3 3 2 3 2 2 2 1 1
6 4 3 4 3 2 2 3 3 4 4 4 4 5 6 5 5 5 6 6 6 6 6 6 6 6 6 5 4 3 3 3 3 3 2 2 2 3 5 5 5 5 4 3
4 2 3 3 2 2 2 3 3 3 4 5 5 4 5 5 5 5 6 6 6 7 6 6 6 6 6 5 5 3 3 3 3 3 3 2 2 2 3 4 5 6 6 6
1 0 1 1 2 2 2 3 3 3 3 4 4 4 4 5 5 6 6 6 6 6 6 5 6 6 6 5 5 4 3 4 4 3 2 2 2 2 2 2 3 3 4 6
1 1 2 2 2 2 3 3 3 4 4 4 4 4 5 5 6 7 6 7 6 6 6 5 6 7 6 5 5 4 3 3 2 2 2 2 2 2 2 2 2 2 3 3
2 1 1 1 2 3 3 3 4 5 5 5 5 5 5 5 6 6 6 6 6 7 7 6 6 6 6 5 4 3 3 6 5 2 2 2 2 2 2 2 2 2 2 2
1 2 2 3 4 4 4 4 4 5 5 5 6 6 5 5 6 6 6 5 5 6 6 6 6 6 6 5 4 3 3 4 6 3 2 2 2 2 2 2 2 2 2 3
3 3 3 3 4 4 4 4 4 5 5 6 6 5 5 5 6 7 6 6 6 5 6 6 6 6 5 4 3 3 3 3 2 2 2 2 2 2 2 2 2 2 2 3
1 2 2 3 3 3 4 4 5 5 5 5 5 5 5 5 5 6 6 5 6 6 6 6 10 6 5 5 5 2 2 3 3 2 2 3 3 2 2 2 2 2 2 2
2 2 3 3 3 3 4 4 4 5 5 4 4 5 5 5 5 5 5 5 4 5 6 7 6 5 4 5 6 2 2 2 2 2 2 2 2 2 2 2 2 2 2 2
3 3 3 4 4 4 4 4 4 5 5 4 4 5 6 6 5 4 4 5 5 5 5 8 5 4 4 4 5 2 1 2 2 2 2 2 2 2 2 2 2 2 2 2
3 3 4 4 4 4 4 4 4 5 5 5 5 5 5 5 5 4 4 4 5 9 6 4 3 5 6 6 2 1 2 2 2 2 2 2 2 2 2 2 2 2 2 2
3 3 4 4 4 5 5 4 4 4 5 5 5 5 5 5 4 4 5 4 4 8 6 4 6 9 8 3 1 1 2 2 2 2 2 2 2 2 2 2 2 2 2 2
3 3 4 3 3 3 4 5 5 4 4 5 4 4 4 4 4 3 4 8 10 9 5 7 10 9 7 2 1 2 2 2 2 2 2 2 2 2 2 2 2 2 3 3
3 3 3 3 3 3 4 5 5 4 4 4 4 4 3 3 4 4 4 5 8 8 4 6 9 9 4 2 2 2 2 2 2 2 1 2 2 2 2 2 3 3 3 3
3 3 3 3 3 3 3 3 3 4 4 4 4 4 3 3 3 3 3 4 5 7 5 3 4 5 3 3 3 3 2 3 3 2 2 2 3 3 3 3 4 3 3 3
3 3 2 3 3 3 3 3 3 4 4 4 5 4 4 4 4 4 4 4 4 4 3 3 3 3 3 3 3 3 2 2 2 2 2 2 3 3 3 4 3 3 3 4
Wind_Direction
255 262 250 265 281 262 225 229 234 263 269 288 304 305 314 323 332 349 349 346 342 340 336 335 337 335 333 332 334 336 337 337 332 329 321 326 337 308 277 201 276 221 168 150
280 260 259 280 294 266 250 250 250 270 277 295 305 317 333 337 340 341 337 334 333 332 333 330 330 329 330 330 330 333 334 336 337 336 333 333 333 326 345 7 331 296 175 158
282 307 327 288 281 258 228 246 238 257 278 318 323 327 320 318 328 325 322 325 324 321 317 317 317 320 321 323 327 334 338 340 341 342 339 335 336 353 7 348 35 51 113 149
280 1 256 248 306 341 179 286 344 294 303 308 302 298 284 288 320 320 318 319 316 314 314 316 318 323 322 326 330 336 340 340 340 342 337 335 345 355 347 346 37 49 44 89
196 250 272 290 317 349 251 268 314 295 308 316 318 309 290 322 335 314 305 304 304 305 307 313 317 322 325 329 334 338 339 335 334 335 332 337 342 343 348 6 22 31 65 75
170 222 248 254 285 307 145 270 309 306 300 314 336 322 292 318 322 314 313 312 312 315 316 315 316 324 327 327 334 331 327 325 327 329 331 335 335 340 357 14 19 23 30 45
205 235 261 263 292 20 190 265 295 282 283 291 276 255 282 305 309 310 311 313 318 320 318 313 316 323 322 320 319 318 322 327 330 332 333 336 348 352 7 21 34 36 30 31
187 221 255 270 97 179 232 277 290 285 283 280 278 286 298 306 310 317 321 323 325 323 320 321 324 324 319 317 319 325 328 329 331 337 339 345 359 0 8 26 41 37 31 24
199 219 240 206 201 233 241 268 282 286 293 290 292 298 306 312 314 316 319 321 322 321 321 326 330 330 320 318 324 328 332 331 333 338 344 348 355 359 3 12 20 17 18 9
248 263 258 250 249 289 286 272 287 290 292 297 294 301 309 314 319 320 320 321 324 327 327 327 330 330 322 318 323 327 326 327 332 338 346 354 353 353 354 352 353 351 353 343
253 276 300 266 256 277 290 299 302 304 298 298 300 304 306 311 317 318 321 323 325 325 324 322 327 328 329 329 326 329 325 326 333 336 338 342 347 350 344 338 329 325 308 304
234 231 225 253 261 280 296 303 303 308 310 311 304 302 307 308 310 314 319 322 325 326 325 324 327 329 331 331 329 329 329 332 330 328 331 336 338 347 354 352 354 353 349 344
235 249 237 255 278 296 294 301 308 304 300 307 309 303 307 309 313 317 321 325 324 322 321 323 327 330 332 332 331 329 323 322 324 327 326 326 327 334 339 351 2 4 1 359
240 180 267 272 281 308 308 308 312 313 308 305 308 315 316 316 319 322 321 319 317 321 326 328 329 327 326 327 328 327 323 321 322 315 315 315 316 318 320 331 342 349 352 358
278 236 233 267 291 309 316 321 325 321 319 320 320 321 322 322 320 317 317 320 326 330 330 331 330 326 325 325 327 327 322 316 310 309 314 316 321 323 322 327 331 335 341 348
291 291 260 266 286 304 317 317 311 309 313 314 316 316 315 312 310 314 319 324 326 327 326 325 322 321 325 325 325 322 321 328 329 325 324 326 322 320 322 324 328 327 329 332
218 274 282 286 292 297 297 291 288 295 303 306 308 311 314 317 319 320 320 320 315 311 315 316 316 319 323 322 320 316 318 322 331 332 326 322 318 319 318 314 314 318 323 327
221 237 244 253 271 287 296 298 297 299 299 301 307 312 315 314 311 311 313 316 319 319 319 320 316 315 320 320 316 312 315 317 320 316 317 315 317 316 313 314 315 316 323 327
264 261 271 280 280 280 286 292 295 295 297 301 305 304 301 298 297 300 307 316 320 319 316 316 324 331 325 319 324 309 306 309 319 322 322 325 335 328 318 313 310 311 317 329
307 304 300 298 298 289 287 292 296 296 295 296 297 299 301 299 298 301 305 302 293 287 297 310 318 319 319 315 323 309 305 306 313 317 321 322 320 318 315 313 313 313 317 321
302 306 305 303 302 298 291 292 294 297 302 301 294 293 295 297 295 294 299 306 307 308 310 318 323 313 311 312 321 322 326 320 316 313 313 313 313 313 312 312 316 319 319 321
292 297 299 301 303 304 304 301 295 296 301 301 296 293 298 302 305 301 284 282 298 315 321 310 306 312 320 327 340 341 329 322 318 312 305 303 302 303 305 310 312 314 315 313
289 292 295 296 295 298 306 306 298 296 297 299 302 305 304 303 303 303 305 305 307 315 320 311 317 323 332 355 351 333 321 317 313 309 305 300 296 295 297 300 299 298 298 301
296 298 297 298 300 305 307 307 305 302 296 296 295 298 301 305 303 288 287 307 318 321 320 318 327 333 349 8 336 316 306 303 298 295 297 299 299 299 296 296 296 296 293 294
296 296 297 302 304 298 298 305 308 308 309 307 305 303 296 288 287 297 300 304 315 324 321 324 332 340 347 322 311 304 298 291 290 297 301 306 300 293 289 286 284 286 287 288
300 299 293 289 286 291 297 301 303 306 309 310 310 307 304 302 300 300 303 306 310 322 325 315 316 325 319 309 304 302 299 305 318 317 296 291 290 288 285 284 285 281 280 280
303 301 301 305 303 298 295 295 298 303 307 305 305 308 310 311 311 310 310 309 310 312 310 312 312 309 307 306 304 301 299 296 295 294 293 288 285 284 284 282 281 281 280 279